Time,TemperatureF,DewpointF,PressureIn,WindDirection,WindDirectionDegrees,WindSpeedMPH,WindSpeedGustMPH,Humidity,HourlyPrecipIn,Conditions,Clouds,dailyrainin,SoftwareType,DateUTC
2013-11-22 00:01:00,61.3,61.0,30.25,SE,135,2.0,3.0,99,0.00,,,0.00,meteohub,2013-11-22 05:01:00,
2013-11-22 00:02:00,61.3,61.0,30.25,SE,135,1.0,3.0,99,0.00,,,0.00,meteohub,2013-11-22 05:02:00,
2013-11-22 00:04:00,61.3,61.0,30.25,SE,135,0.0,3.0,99,0.00,,,0.00,meteohub,2013-11-22 05:04:00,
2013-11-22 00:05:00,61.3,61.0,30.25,SE,135,1.0,3.0,99,0.00,,,0.00,meteohub,2013-11-22 05:05:00,
2013-11-22 00:06:00,61.3,61.0,30.25,SE,135,2.0,3.0,99,0.00,,,0.00,meteohub,2013-11-22 05:06:00,
2013-11-22 00:11:00,61.3,61.0,30.25,South,180,1.0,3.0,99,0.00,,,0.00,meteohub,2013-11-22 05:11:00,
2013-11-22 00:16:00,61.3,61.0,30.25,ESE,113,2.0,2.0,99,0.00,,,0.00,meteohub,2013-11-22 05:16:00,
2013-11-22 00:21:00,61.3,61.0,30.24,SE,135,2.0,2.0,99,0.00,,,0.00,meteohub,2013-11-22 05:21:00,
2013-11-22 00:26:00,61.3,61.0,30.24,South,180,1.0,2.0,99,0.00,,,0.00,meteohub,2013-11-22 05:26:00,
2013-11-22 00:31:00,61.3,61.0,30.24,SE,135,2.0,2.0,99,0.00,,,0.00,meteohub,2013-11-22 05:31:00,
2013-11-22 00:36:00,61.3,61.0,30.23,SW,225,2.0,2.0,99,0.00,,,0.00,meteohub,2013-11-22 05:36:00,
2013-11-22 00:41:00,61.3,61.0,30.23,SE,135,1.0,4.0,99,0.00,,,0.00,meteohub,2013-11-22 05:41:00,
2013-11-22 00:46:00,61.2,60.8,30.23,South,180,0.0,4.0,99,0.00,,,0.00,meteohub,2013-11-22 05:46:00,
2013-11-22 00:51:00,61.2,60.8,30.23,SW,225,0.0,4.0,99,0.00,,,0.00,meteohub,2013-11-22 05:51:00,
2013-11-22 00:56:00,61.0,60.6,30.23,SW,225,0.0,2.0,99,0.00,,,0.00,meteohub,2013-11-22 05:56:00,
2013-11-22 01:01:00,61.0,60.6,30.23,West,270,0.0,1.0,99,0.00,,,0.00,meteohub,2013-11-22 06:01:00,
2013-11-22 01:06:00,61.0,60.6,30.23,NW,315,0.0,2.0,99,0.00,,,0.00,meteohub,2013-11-22 06:06:00,
2013-11-22 01:12:00,61.0,60.6,30.23,NW,315,0.0,2.0,99,0.00,,,0.00,meteohub,2013-11-22 06:12:00,
2013-11-22 01:17:00,61.0,60.6,30.23,NW,315,0.0,2.0,99,0.00,,,0.00,meteohub,2013-11-22 06:17:00,
2013-11-22 01:22:00,60.8,60.4,30.22,NW,315,0.0,2.0,99,0.00,,,0.00,meteohub,2013-11-22 06:22:00,
2013-11-22 01:27:00,60.6,60.3,30.22,NW,315,0.0,0.0,99,0.00,,,0.00,meteohub,2013-11-22 06:27:00,
2013-11-22 01:32:00,60.4,60.1,30.22,NW,315,1.0,0.0,99,0.00,,,0.00,meteohub,2013-11-22 06:32:00,
2013-11-22 01:37:00,60.4,60.1,30.22,SE,135,1.0,1.0,99,0.00,,,0.00,meteohub,2013-11-22 06:37:00,
2013-11-22 01:42:00,60.4,60.1,30.22,SE,135,1.0,1.0,99,0.00,,,0.00,meteohub,2013-11-22 06:42:00,
2013-11-22 01:47:00,60.4,60.1,30.22,SE,135,1.0,1.0,99,0.00,,,0.00,meteohub,2013-11-22 06:47:00,
2013-11-22 01:52:00,60.4,60.1,30.22,SE,135,1.0,2.0,99,0.00,,,0.00,meteohub,2013-11-22 06:52:00,
2013-11-22 01:57:00,60.6,60.3,30.22,SE,135,0.0,2.0,99,0.00,,,0.00,meteohub,2013-11-22 06:57:00,
2013-11-22 02:02:00,60.6,60.3,30.22,SE,135,0.0,2.0,99,0.00,,,0.00,meteohub,2013-11-22 07:02:00,
2013-11-22 02:07:00,60.6,60.3,30.22,SE,135,1.0,1.0,99,0.00,,,0.00,meteohub,2013-11-22 07:07:00,
2013-11-22 02:12:00,60.6,60.3,30.21,SE,135,2.0,2.0,99,0.00,,,0.00,meteohub,2013-11-22 07:12:00,
2013-11-22 02:17:00,60.6,60.3,30.21,SE,135,0.0,2.0,99,0.00,,,0.00,meteohub,2013-11-22 07:17:00,
2013-11-22 02:22:00,60.6,60.3,30.21,SE,135,1.0,2.0,99,0.00,,,0.00,meteohub,2013-11-22 07:22:00,
2013-11-22 02:27:00,60.4,60.1,30.22,SE,135,0.0,2.0,99,0.00,,,0.00,meteohub,2013-11-22 07:27:00,
2013-11-22 02:32:00,60.4,60.1,30.21,SW,225,0.0,2.0,99,0.00,,,0.00,meteohub,2013-11-22 07:32:00,
2013-11-22 02:37:00,60.4,60.1,30.21,SW,225,0.0,2.0,99,0.00,,,0.00,meteohub,2013-11-22 07:37:00,
2013-11-22 02:42:00,60.6,60.3,30.21,SE,135,0.0,1.0,99,0.00,,,0.00,meteohub,2013-11-22 07:42:00,
2013-11-22 02:47:00,60.4,60.1,30.21,East,90,2.0,2.0,99,0.00,,,0.00,meteohub,2013-11-22 07:47:00,
2013-11-22 02:52:00,60.4,60.1,30.21,SE,135,1.0,2.0,99,0.00,,,0.00,meteohub,2013-11-22 07:52:00,
2013-11-22 02:57:00,60.6,60.3,30.21,East,90,2.0,2.0,99,0.00,,,0.00,meteohub,2013-11-22 07:57:00,
2013-11-22 03:02:00,60.6,60.3,30.21,SE,135,0.0,2.0,99,0.00,,,0.00,meteohub,2013-11-22 08:02:00,
2013-11-22 03:07:00,60.6,60.3,30.21,East,90,2.0,2.0,99,0.00,,,0.00,meteohub,2013-11-22 08:07:00,
2013-11-22 03:12:00,60.6,60.3,30.21,SE,135,2.0,3.0,99,0.00,,,0.00,meteohub,2013-11-22 08:12:00,
2013-11-22 03:17:00,60.6,60.3,30.20,East,90,1.0,3.0,99,0.00,,,0.00,meteohub,2013-11-22 08:17:00,
2013-11-22 03:22:00,60.8,60.4,30.20,South,180,1.0,3.0,99,0.00,,,0.00,meteohub,2013-11-22 08:22:00,
2013-11-22 03:27:00,60.8,60.4,30.20,South,180,2.0,2.0,99,0.00,,,0.00,meteohub,2013-11-22 08:27:00,
2013-11-22 03:32:00,60.8,60.4,30.20,SE,135,2.0,2.0,99,0.00,,,0.00,meteohub,2013-11-22 08:32:00,
2013-11-22 03:37:00,60.8,60.4,30.19,SE,135,2.0,2.0,99,0.00,,,0.00,meteohub,2013-11-22 08:37:00,
2013-11-22 03:42:00,60.8,60.4,30.20,East,90,4.0,4.0,99,0.00,,,0.00,meteohub,2013-11-22 08:42:00,
2013-11-22 03:47:00,60.8,60.4,30.19,East,90,2.0,4.0,99,0.00,,,0.00,meteohub,2013-11-22 08:47:00,
2013-11-22 03:52:00,61.0,60.6,30.19,East,90,3.0,4.0,99,0.00,,,0.00,meteohub,2013-11-22 08:52:00,
2013-11-22 03:57:00,61.0,60.6,30.19,East,90,4.0,4.0,99,0.00,,,0.00,meteohub,2013-11-22 08:57:00,
2013-11-22 04:02:00,61.0,60.6,30.19,ESE,113,3.0,4.0,99,0.00,,,0.00,meteohub,2013-11-22 09:02:00,
2013-11-22 04:07:00,61.0,60.6,30.19,East,90,2.0,4.0,99,0.00,,,0.00,meteohub,2013-11-22 09:07:00,
2013-11-22 04:12:00,61.0,60.6,30.19,East,90,2.0,4.0,99,0.00,,,0.00,meteohub,2013-11-22 09:12:00,
2013-11-22 04:17:00,60.8,60.4,30.20,East,90,0.0,4.0,99,0.00,,,0.00,meteohub,2013-11-22 09:17:00,
2013-11-22 04:22:00,61.0,60.6,30.19,NW,315,1.0,3.0,99,0.00,,,0.00,meteohub,2013-11-22 09:22:00,
2013-11-22 04:27:00,61.0,60.6,30.19,East,90,1.0,2.0,99,0.00,,,0.00,meteohub,2013-11-22 09:27:00,
2013-11-22 04:32:00,61.0,60.6,30.19,SE,135,1.0,2.0,99,0.00,,,0.00,meteohub,2013-11-22 09:32:00,
2013-11-22 04:37:00,61.0,60.6,30.19,East,90,0.0,2.0,99,0.00,,,0.00,meteohub,2013-11-22 09:37:00,
2013-11-22 04:42:00,61.0,60.6,30.20,East,90,0.0,2.0,99,0.00,,,0.00,meteohub,2013-11-22 09:42:00,
2013-11-22 04:47:00,61.0,60.6,30.20,East,90,0.0,2.0,99,0.00,,,0.00,meteohub,2013-11-22 09:47:00,
2013-11-22 04:52:00,61.2,60.8,30.19,East,90,2.0,2.0,99,0.00,,,0.00,meteohub,2013-11-22 09:52:00,
2013-11-22 04:57:00,61.2,60.8,30.19,East,90,0.0,2.0,99,0.00,,,0.00,meteohub,2013-11-22 09:57:00,
2013-11-22 05:02:00,61.2,60.8,30.19,SE,135,0.0,2.0,99,0.00,,,0.00,meteohub,2013-11-22 10:02:00,
2013-11-22 05:07:00,61.2,60.8,30.19,West,270,0.0,2.0,99,0.00,,,0.00,meteohub,2013-11-22 10:07:00,
2013-11-22 05:12:00,61.2,60.8,30.20,SE,135,0.0,1.0,99,0.00,,,0.00,meteohub,2013-11-22 10:12:00,
2013-11-22 05:17:00,61.3,61.0,30.19,SE,135,0.0,0.0,99,0.00,,,0.00,meteohub,2013-11-22 10:17:00,
2013-11-22 05:22:00,61.3,61.0,30.19,SE,135,1.0,0.0,99,0.00,,,0.00,meteohub,2013-11-22 10:22:00,
2013-11-22 05:27:00,61.3,61.0,30.19,East,90,1.0,1.0,99,0.00,,,0.00,meteohub,2013-11-22 10:27:00,
2013-11-22 05:32:00,61.3,61.0,30.20,East,90,0.0,1.0,99,0.00,,,0.00,meteohub,2013-11-22 10:32:00,
2013-11-22 05:37:00,61.5,61.2,30.20,East,90,0.0,1.0,99,0.00,,,0.00,meteohub,2013-11-22 10:37:00,
2013-11-22 05:42:00,61.5,61.2,30.20,East,90,0.0,1.0,99,0.00,,,0.00,meteohub,2013-11-22 10:42:00,
2013-11-22 05:47:00,61.5,61.2,30.20,East,90,0.0,1.0,99,0.00,,,0.00,meteohub,2013-11-22 10:47:00,
2013-11-22 05:52:00,61.5,61.2,30.20,East,90,0.0,0.0,99,0.00,,,0.00,meteohub,2013-11-22 10:52:00,
2013-11-22 05:57:00,61.5,61.2,30.21,East,90,0.0,0.0,99,0.00,,,0.00,meteohub,2013-11-22 10:57:00,
2013-11-22 06:02:00,61.5,61.2,30.20,East,90,0.0,0.0,99,0.00,,,0.00,meteohub,2013-11-22 11:02:00,
2013-11-22 06:07:00,61.7,61.3,30.20,East,90,0.0,0.0,99,0.00,,,0.00,meteohub,2013-11-22 11:07:00,
2013-11-22 06:12:00,61.7,61.3,30.20,East,90,0.0,0.0,99,0.00,,,0.00,meteohub,2013-11-22 11:12:00,
2013-11-22 06:17:00,61.9,61.5,30.20,East,90,0.0,0.0,99,0.00,,,0.00,meteohub,2013-11-22 11:17:00,
2013-11-22 06:22:00,62.1,61.7,30.20,East,90,0.0,1.0,99,0.00,,,0.00,meteohub,2013-11-22 11:22:00,
2013-11-22 06:27:00,62.2,61.9,30.20,East,90,1.0,1.0,99,0.00,,,0.00,meteohub,2013-11-22 11:27:00,
2013-11-22 06:32:00,62.4,62.1,30.20,East,90,1.0,2.0,99,0.00,,,0.00,meteohub,2013-11-22 11:32:00,
2013-11-22 06:37:00,62.6,62.2,30.21,East,90,1.0,2.0,99,0.00,,,0.00,meteohub,2013-11-22 11:37:00,
2013-11-22 06:42:00,62.8,62.4,30.21,East,90,2.0,2.0,99,0.00,,,0.00,meteohub,2013-11-22 11:42:00,
2013-11-22 06:47:00,62.8,62.4,30.21,East,90,2.0,2.0,99,0.00,,,0.00,meteohub,2013-11-22 11:47:00,
2013-11-22 06:52:00,63.0,62.6,30.20,SE,135,0.0,2.0,99,0.00,,,0.00,meteohub,2013-11-22 11:52:00,
2013-11-22 06:57:00,63.0,62.6,30.20,East,90,1.0,2.0,99,0.00,,,0.00,meteohub,2013-11-22 11:57:00,
2013-11-22 07:02:00,63.0,62.6,30.21,East,90,2.0,2.0,99,0.00,,,0.00,meteohub,2013-11-22 12:02:00,
2013-11-22 07:07:00,63.1,62.8,30.21,East,90,3.0,3.0,99,0.00,,,0.00,meteohub,2013-11-22 12:07:00,
2013-11-22 07:12:00,63.1,62.8,30.21,East,90,2.0,3.0,99,0.00,,,0.00,meteohub,2013-11-22 12:12:00,
2013-11-22 07:17:00,63.1,62.8,30.21,East,90,2.0,3.0,99,0.00,,,0.00,meteohub,2013-11-22 12:17:00,
2013-11-22 07:22:00,63.3,63.0,30.21,SE,135,1.0,3.0,99,0.00,,,0.00,meteohub,2013-11-22 12:22:00,
2013-11-22 07:27:00,63.3,63.0,30.21,North,0,0.0,4.0,99,0.00,,,0.00,meteohub,2013-11-22 12:27:00,
2013-11-22 07:32:00,63.3,63.0,30.21,North,0,0.0,4.0,99,0.00,,,0.00,meteohub,2013-11-22 12:32:00,
2013-11-22 07:37:00,63.3,63.0,30.21,North,0,2.0,2.0,99,0.00,,,0.00,meteohub,2013-11-22 12:37:00,
2013-11-22 07:43:00,63.3,63.0,30.22,SE,135,0.0,2.0,99,0.00,,,0.00,meteohub,2013-11-22 12:43:00,
2013-11-22 07:48:00,63.3,63.0,30.22,SW,225,1.0,2.0,99,0.00,,,0.00,meteohub,2013-11-22 12:48:00,
2013-11-22 07:53:00,63.3,63.0,30.22,East,90,1.0,2.0,99,0.00,,,0.00,meteohub,2013-11-22 12:53:00,
2013-11-22 07:58:00,63.5,63.1,30.21,South,180,0.0,2.0,99,0.00,,,0.00,meteohub,2013-11-22 12:58:00,
2013-11-22 08:03:00,63.7,63.3,30.22,East,90,0.0,2.0,99,0.00,,,0.00,meteohub,2013-11-22 13:03:00,
2013-11-22 08:08:00,63.9,63.5,30.22,East,90,2.0,2.0,99,0.00,,,0.00,meteohub,2013-11-22 13:08:00,
2013-11-22 08:13:00,64.0,63.7,30.21,SE,135,1.0,1.0,99,0.00,,,0.00,meteohub,2013-11-22 13:13:00,
2013-11-22 08:18:00,64.0,63.7,30.22,East,90,1.0,2.0,99,0.00,,,0.00,meteohub,2013-11-22 13:18:00,
2013-11-22 08:23:00,64.2,63.9,30.22,East,90,0.0,2.0,99,0.00,,,0.00,meteohub,2013-11-22 13:23:00,
2013-11-22 08:28:00,64.6,64.2,30.22,NW,315,0.0,2.0,99,0.00,,,0.00,meteohub,2013-11-22 13:28:00,
2013-11-22 08:33:00,64.8,64.4,30.22,NW,315,1.0,2.0,99,0.00,,,0.00,meteohub,2013-11-22 13:33:00,
2013-11-22 08:38:00,64.9,64.6,30.22,NW,315,0.0,2.0,99,0.00,,,0.00,meteohub,2013-11-22 13:38:00,
2013-11-22 08:43:00,65.1,64.8,30.22,SE,135,1.0,2.0,99,0.00,,,0.00,meteohub,2013-11-22 13:43:00,
2013-11-22 08:48:00,65.1,64.8,30.22,East,90,2.0,2.0,99,0.00,,,0.00,meteohub,2013-11-22 13:48:00,
2013-11-22 08:54:00,65.3,64.9,30.22,ESE,113,2.0,2.0,99,0.00,,,0.00,meteohub,2013-11-22 13:54:00,
2013-11-22 08:59:00,65.5,65.1,30.22,East,90,2.0,3.0,99,0.00,,,0.00,meteohub,2013-11-22 13:59:00,
2013-11-22 09:04:00,65.8,65.5,30.22,East,90,2.0,3.0,99,0.00,,,0.00,meteohub,2013-11-22 14:04:00,
2013-11-22 09:09:00,66.2,65.8,30.22,SE,135,2.0,3.0,99,0.00,,,0.00,meteohub,2013-11-22 14:09:00,
2013-11-22 09:14:00,66.9,66.6,30.22,SE,135,3.0,3.0,99,0.00,,,0.00,meteohub,2013-11-22 14:14:00,
2013-11-22 09:19:00,67.1,66.7,30.22,SE,135,2.0,3.0,99,0.00,,,0.00,meteohub,2013-11-22 14:19:00,
2013-11-22 09:24:00,67.3,66.9,30.22,East,90,2.0,3.0,99,0.00,,,0.00,meteohub,2013-11-22 14:24:00,
2013-11-22 09:29:00,68.0,67.6,30.22,East,90,2.0,3.0,99,0.00,,,0.00,meteohub,2013-11-22 14:29:00,
2013-11-22 09:34:00,69.1,68.7,30.22,SE,135,2.0,3.0,99,0.00,,,0.00,meteohub,2013-11-22 14:34:00,
2013-11-22 09:39:00,69.8,69.4,30.22,East,90,3.0,3.0,99,0.00,,,0.00,meteohub,2013-11-22 14:39:00,
2013-11-22 09:44:00,70.7,70.3,30.22,SE,135,3.0,3.0,99,0.00,,,0.00,meteohub,2013-11-22 14:44:00,
2013-11-22 09:49:00,71.4,71.1,30.22,East,90,2.0,4.0,99,0.00,,,0.00,meteohub,2013-11-22 14:49:00,
2013-11-22 09:54:00,71.8,71.4,30.22,SE,135,4.0,4.0,99,0.00,,,0.00,meteohub,2013-11-22 14:54:00,
2013-11-22 09:59:00,72.0,71.6,30.22,East,90,3.0,4.0,99,0.00,,,0.00,meteohub,2013-11-22 14:59:00,
2013-11-22 10:04:00,72.0,71.6,30.22,NE,45,2.0,8.0,99,0.00,,,0.00,meteohub,2013-11-22 15:04:00,
2013-11-22 10:09:00,72.3,72.0,30.22,SE,135,3.0,8.0,99,0.00,,,0.00,meteohub,2013-11-22 15:09:00,
2013-11-22 10:14:00,72.9,72.5,30.21,SW,225,1.0,8.0,99,0.00,,,0.00,meteohub,2013-11-22 15:14:00,
2013-11-22 10:20:00,73.4,73.0,30.21,SE,135,4.0,5.0,99,0.00,,,0.00,meteohub,2013-11-22 15:20:00,
2013-11-22 10:25:00,73.8,73.4,30.21,ESE,113,2.0,4.0,99,0.00,,,0.00,meteohub,2013-11-22 15:25:00,
2013-11-22 10:30:00,74.1,73.8,30.21,East,90,2.0,6.0,99,0.00,,,0.00,meteohub,2013-11-22 15:30:00,
2013-11-22 10:35:00,74.5,74.1,30.21,SE,135,4.0,6.0,99,0.00,,,0.00,meteohub,2013-11-22 15:35:00,
2013-11-22 10:40:00,75.2,74.8,30.21,South,180,3.0,6.0,99,0.00,,,0.00,meteohub,2013-11-22 15:40:00,
2013-11-22 10:45:00,76.1,75.7,30.21,West,270,2.0,5.0,99,0.00,,,0.00,meteohub,2013-11-22 15:45:00,
2013-11-22 10:50:00,76.6,76.3,30.21,West,270,1.0,4.0,99,0.00,,,0.00,meteohub,2013-11-22 15:50:00,
2013-11-22 10:55:00,76.8,76.5,30.21,NW,315,2.0,4.0,99,0.00,,,0.00,meteohub,2013-11-22 15:55:00,
2013-11-22 11:00:00,77.4,77.0,30.21,SW,225,1.0,4.0,99,0.00,,,0.00,meteohub,2013-11-22 16:00:00,
2013-11-22 11:05:00,77.9,77.5,30.20,SE,135,0.0,4.0,99,0.00,,,0.00,meteohub,2013-11-22 16:05:00,
2013-11-22 11:10:00,78.1,77.7,30.20,SE,135,4.0,4.0,99,0.00,,,0.00,meteohub,2013-11-22 16:10:00,
2013-11-22 11:15:00,78.3,77.9,30.20,SE,135,4.0,4.0,99,0.00,,,0.00,meteohub,2013-11-22 16:15:00,
2013-11-22 11:20:00,78.4,78.1,30.20,East,90,3.0,4.0,99,0.00,,,0.00,meteohub,2013-11-22 16:20:00,
2013-11-22 11:26:00,79.0,78.4,30.19,NE,45,4.0,4.0,98,0.00,,,0.00,meteohub,2013-11-22 16:26:00,
2013-11-22 11:31:00,79.5,78.6,30.19,SE,135,2.0,4.0,97,0.00,,,0.00,meteohub,2013-11-22 16:31:00,
2013-11-22 11:36:00,80.1,78.8,30.19,SE,135,1.0,4.0,96,0.00,,,0.00,meteohub,2013-11-22 16:36:00,
2013-11-22 11:41:00,80.4,78.6,30.19,East,90,3.0,4.0,94,0.00,,,0.00,meteohub,2013-11-22 16:41:00,
2013-11-22 11:46:00,79.9,78.3,30.18,West,270,3.0,5.0,95,0.00,,,0.00,meteohub,2013-11-22 16:46:00,
2013-11-22 11:51:00,79.9,78.3,30.18,South,180,2.0,5.0,95,0.00,,,0.00,meteohub,2013-11-22 16:51:00,
2013-11-22 11:56:00,79.5,77.9,30.18,East,90,4.0,5.0,95,0.00,,,0.00,meteohub,2013-11-22 16:56:00,
2013-11-22 12:01:00,78.6,77.4,30.17,SE,135,3.0,8.0,96,0.00,,,0.00,meteohub,2013-11-22 17:01:00,
2013-11-22 12:06:00,78.6,78.1,30.18,SE,135,3.0,8.0,98,0.00,,,0.00,meteohub,2013-11-22 17:06:00,
2013-11-22 12:11:00,78.6,78.3,30.17,WSW,248,4.0,8.0,99,0.00,,,0.00,meteohub,2013-11-22 17:11:00,
2013-11-22 12:16:00,78.8,78.3,30.17,East,90,5.0,6.0,98,0.00,,,0.00,meteohub,2013-11-22 17:16:00,
2013-11-22 12:21:00,79.5,79.0,30.16,SE,135,4.0,6.0,98,0.00,,,0.00,meteohub,2013-11-22 17:21:00,
2013-11-22 12:26:00,80.6,78.4,30.16,East,90,3.0,5.0,93,0.00,,,0.00,meteohub,2013-11-22 17:26:00,
2013-11-22 12:31:00,80.6,78.1,30.16,East,90,4.0,7.0,92,0.00,,,0.00,meteohub,2013-11-22 17:31:00,
2013-11-22 12:36:00,79.7,77.9,30.16,SE,135,2.0,7.0,94,0.00,,,0.00,meteohub,2013-11-22 17:36:00,
2013-11-22 12:41:00,78.8,77.5,30.15,SE,135,2.0,6.0,96,0.00,,,0.00,meteohub,2013-11-22 17:41:00,
2013-11-22 12:46:00,78.4,77.9,30.15,SSW,203,4.0,6.0,98,0.00,,,0.00,meteohub,2013-11-22 17:46:00,
2013-11-22 12:51:00,78.3,77.9,30.15,SE,135,4.0,6.0,99,0.00,,,0.00,meteohub,2013-11-22 17:51:00,
2013-11-22 12:57:00,77.5,77.2,30.15,South,180,5.0,6.0,99,0.00,,,0.00,meteohub,2013-11-22 17:57:00,
2013-11-22 13:02:00,77.0,76.6,30.15,East,90,4.0,6.0,99,0.00,,,0.00,meteohub,2013-11-22 18:02:00,
2013-11-22 13:07:00,77.0,76.6,30.14,SE,135,2.0,6.0,99,0.00,,,0.00,meteohub,2013-11-22 18:07:00,
2013-11-22 13:12:00,77.0,76.6,30.15,SE,135,3.0,5.0,99,0.00,,,0.00,meteohub,2013-11-22 18:12:00,
2013-11-22 13:17:00,77.2,76.8,30.14,East,90,2.0,4.0,99,0.00,,,0.00,meteohub,2013-11-22 18:17:00,
2013-11-22 13:22:00,77.2,76.8,30.14,East,90,4.0,5.0,99,0.00,,,0.00,meteohub,2013-11-22 18:22:00,
2013-11-22 13:27:00,77.0,76.6,30.14,East,90,6.0,6.0,99,0.00,,,0.00,meteohub,2013-11-22 18:27:00,
2013-11-22 13:32:00,76.8,76.5,30.14,NE,45,2.0,6.0,99,0.00,,,0.00,meteohub,2013-11-22 18:32:00,
2013-11-22 13:37:00,77.0,76.6,30.14,SE,135,2.0,6.0,99,0.00,,,0.00,meteohub,2013-11-22 18:37:00,
2013-11-22 13:42:00,76.8,76.5,30.14,West,270,1.0,6.0,99,0.00,,,0.00,meteohub,2013-11-22 18:42:00,
2013-11-22 13:47:00,76.5,76.1,30.13,West,270,0.0,4.0,99,0.00,,,0.00,meteohub,2013-11-22 18:47:00,
2013-11-22 13:52:00,76.5,76.1,30.14,SW,225,0.0,4.0,99,0.00,,,0.00,meteohub,2013-11-22 18:52:00,
2013-11-22 13:57:00,76.6,76.3,30.13,West,270,2.0,4.0,99,0.00,,,0.00,meteohub,2013-11-22 18:57:00,
2013-11-22 14:02:00,77.0,76.6,30.13,SSW,203,0.0,2.0,99,0.00,,,0.00,meteohub,2013-11-22 19:02:00,
2013-11-22 14:07:00,77.4,77.0,30.13,West,270,2.0,2.0,99,0.00,,,0.00,meteohub,2013-11-22 19:07:00,
2013-11-22 14:12:00,77.5,77.2,30.13,West,270,2.0,4.0,99,0.00,,,0.00,meteohub,2013-11-22 19:12:00,
2013-11-22 14:17:00,77.5,77.2,30.13,West,270,2.0,4.0,99,0.00,,,0.00,meteohub,2013-11-22 19:17:00,
2013-11-22 14:22:00,77.4,76.8,30.13,North,0,2.0,4.0,98,0.00,,,0.00,meteohub,2013-11-22 19:22:00,
2013-11-22 14:27:00,77.5,77.2,30.12,SW,225,1.0,3.0,99,0.00,,,0.00,meteohub,2013-11-22 19:27:00,
2013-11-22 14:32:00,77.5,77.2,30.12,NE,45,2.0,3.0,99,0.00,,,0.00,meteohub,2013-11-22 19:32:00,
2013-11-22 14:37:00,77.4,77.0,30.12,West,270,2.0,3.0,99,0.00,,,0.00,meteohub,2013-11-22 19:37:00,
2013-11-22 14:42:00,77.2,76.8,30.12,West,270,2.0,3.0,99,0.00,,,0.00,meteohub,2013-11-22 19:42:00,
2013-11-22 14:47:00,76.6,76.3,30.12,NW,315,2.0,2.0,99,0.00,,,0.00,meteohub,2013-11-22 19:47:00,
2013-11-22 14:52:00,75.7,75.4,30.12,West,270,2.0,5.0,99,0.00,,,0.00,meteohub,2013-11-22 19:52:00,
2013-11-22 14:57:00,75.0,74.7,30.12,NW,315,4.0,5.0,99,0.00,,,0.00,meteohub,2013-11-22 19:57:00,
2013-11-22 15:02:00,74.5,74.1,30.12,NW,315,4.0,6.0,99,0.00,,,0.00,meteohub,2013-11-22 20:02:00,
2013-11-22 15:07:00,74.1,73.8,30.12,NNW,338,4.0,6.0,99,0.00,,,0.00,meteohub,2013-11-22 20:07:00,
2013-11-22 15:12:00,73.8,73.4,30.12,NW,315,4.0,6.0,99,0.00,,,0.00,meteohub,2013-11-22 20:12:00,
2013-11-22 15:17:00,73.6,73.2,30.12,North,0,2.0,5.0,99,0.00,,,0.00,meteohub,2013-11-22 20:17:00,
2013-11-22 15:22:00,73.6,73.2,30.12,North,0,5.0,5.0,99,0.00,,,0.00,meteohub,2013-11-22 20:22:00,
2013-11-22 15:27:00,73.6,73.2,30.12,SSW,203,2.0,5.0,99,0.00,,,0.00,meteohub,2013-11-22 20:27:00,
2013-11-22 15:32:00,74.7,74.3,30.12,West,270,1.0,5.0,99,0.00,,,0.00,meteohub,2013-11-22 20:32:00,
2013-11-22 15:37:00,75.7,75.4,30.12,SE,135,2.0,5.0,99,0.00,,,0.00,meteohub,2013-11-22 20:37:00,
2013-11-22 15:43:00,77.2,76.8,30.12,North,0,2.0,4.0,99,0.00,,,0.00,meteohub,2013-11-22 20:43:00,
2013-11-22 15:48:00,77.0,76.6,30.12,NW,315,2.0,3.0,99,0.00,,,0.00,meteohub,2013-11-22 20:48:00,
2013-11-22 15:53:00,76.5,76.1,30.12,NW,315,2.0,3.0,99,0.00,,,0.00,meteohub,2013-11-22 20:53:00,
2013-11-22 15:58:00,75.7,75.4,30.12,NNW,338,2.0,3.0,99,0.00,,,0.00,meteohub,2013-11-22 20:58:00,
2013-11-22 16:03:00,75.2,74.8,30.12,NW,315,2.0,3.0,99,0.00,,,0.00,meteohub,2013-11-22 21:03:00,
2013-11-22 16:08:00,74.7,74.3,30.12,NW,315,2.0,2.0,99,0.00,,,0.00,meteohub,2013-11-22 21:08:00,
2013-11-22 16:13:00,74.3,73.9,30.12,NW,315,2.0,3.0,99,0.00,,,0.00,meteohub,2013-11-22 21:13:00,
2013-11-22 16:18:00,73.8,73.4,30.12,North,0,2.0,3.0,99,0.00,,,0.00,meteohub,2013-11-22 21:18:00,
2013-11-22 16:23:00,73.4,73.0,30.12,NW,315,1.0,3.0,99,0.00,,,0.00,meteohub,2013-11-22 21:23:00,
2013-11-22 16:28:00,73.2,72.9,30.12,North,0,2.0,3.0,99,0.00,,,0.00,meteohub,2013-11-22 21:28:00,
2013-11-22 16:33:00,73.2,72.9,30.12,NW,315,1.0,2.0,99,0.00,,,0.00,meteohub,2013-11-22 21:33:00,
2013-11-22 16:38:00,73.0,72.7,30.12,NW,315,2.0,2.0,99,0.00,,,0.00,meteohub,2013-11-22 21:38:00,
2013-11-22 16:43:00,72.7,72.3,30.12,NW,315,2.0,2.0,99,0.00,,,0.00,meteohub,2013-11-22 21:43:00,
2013-11-22 16:48:00,72.3,72.0,30.12,North,0,2.0,2.0,99,0.00,,,0.00,meteohub,2013-11-22 21:48:00,
2013-11-22 16:54:00,72.1,71.8,30.12,North,0,1.0,3.0,99,0.00,,,0.00,meteohub,2013-11-22 21:54:00,
2013-11-22 16:59:00,72.0,71.6,30.12,North,0,2.0,3.0,99,0.00,,,0.00,meteohub,2013-11-22 21:59:00,
2013-11-22 17:04:00,71.6,71.2,30.12,North,0,2.0,3.0,99,0.00,,,0.00,meteohub,2013-11-22 22:04:00,
2013-11-22 17:09:00,71.4,71.1,30.11,NW,315,0.0,4.0,99,0.00,,,0.00,meteohub,2013-11-22 22:09:00,
2013-11-22 17:14:00,71.1,70.7,30.11,North,0,0.0,4.0,99,0.00,,,0.00,meteohub,2013-11-22 22:14:00,
2013-11-22 17:19:00,70.9,70.5,30.12,North,0,1.0,3.0,99,0.00,,,0.00,meteohub,2013-11-22 22:19:00,
2013-11-22 17:24:00,70.3,70.0,30.12,West,270,1.0,2.0,99,0.00,,,0.00,meteohub,2013-11-22 22:24:00,
2013-11-22 17:29:00,70.2,69.8,30.11,West,270,0.0,2.0,99,0.00,,,0.00,meteohub,2013-11-22 22:29:00,
2013-11-22 17:34:00,70.0,69.6,30.12,West,270,0.0,2.0,99,0.00,,,0.00,meteohub,2013-11-22 22:34:00,
2013-11-22 17:40:00,69.8,69.4,30.12,West,270,0.0,1.0,99,0.00,,,0.00,meteohub,2013-11-22 22:40:00,
2013-11-22 17:45:00,69.6,69.3,30.12,South,180,0.0,1.0,99,0.00,,,0.00,meteohub,2013-11-22 22:45:00,
2013-11-22 17:50:00,69.4,69.1,30.11,South,180,0.0,0.0,99,0.00,,,0.00,meteohub,2013-11-22 22:50:00,
2013-11-22 17:55:00,69.4,69.1,30.12,South,180,0.0,0.0,99,0.00,,,0.00,meteohub,2013-11-22 22:55:00,
2013-11-22 18:00:00,69.3,68.9,30.11,South,180,0.0,0.0,99,0.00,,,0.00,meteohub,2013-11-22 23:00:00,
2013-11-22 18:05:00,69.3,68.9,30.12,SE,135,0.0,0.0,99,0.00,,,0.00,meteohub,2013-11-22 23:05:00,
2013-11-22 18:10:00,69.1,68.7,30.12,SE,135,0.0,1.0,99,0.00,,,0.00,meteohub,2013-11-22 23:10:00,
2013-11-22 18:15:00,69.1,68.7,30.12,SE,135,0.0,1.0,99,0.00,,,0.00,meteohub,2013-11-22 23:15:00,
2013-11-22 18:20:00,69.1,68.7,30.12,North,0,0.0,1.0,99,0.00,,,0.00,meteohub,2013-11-22 23:20:00,
2013-11-22 18:25:00,68.9,68.5,30.12,North,0,0.0,1.0,99,0.00,,,0.00,meteohub,2013-11-22 23:25:00,
2013-11-22 18:30:00,68.7,68.4,30.13,North,0,0.0,1.0,99,0.00,,,0.00,meteohub,2013-11-22 23:30:00,
2013-11-22 18:35:00,68.7,68.4,30.12,North,0,0.0,0.0,99,0.00,,,0.00,meteohub,2013-11-22 23:35:00,
2013-11-22 18:40:00,68.5,68.2,30.12,North,0,0.0,1.0,99,0.00,,,0.00,meteohub,2013-11-22 23:40:00,
2013-11-22 18:45:00,68.5,68.2,30.12,North,0,0.0,1.0,99,0.00,,,0.00,meteohub,2013-11-22 23:45:00,
2013-11-22 18:50:00,68.5,68.2,30.12,North,0,0.0,1.0,99,0.00,,,0.00,meteohub,2013-11-22 23:50:00,
2013-11-22 18:55:00,68.5,68.2,30.12,North,0,0.0,1.0,99,0.00,,,0.00,meteohub,2013-11-22 23:55:00,
2013-11-22 19:01:00,68.4,68.0,30.12,South,180,1.0,1.0,99,0.00,,,0.00,meteohub,2013-11-23 00:01:00,
2013-11-22 19:06:00,68.4,68.0,30.12,SE,135,2.0,2.0,99,0.00,,,0.00,meteohub,2013-11-23 00:06:00,
2013-11-22 19:11:00,68.2,67.8,30.11,East,90,1.0,2.0,99,0.00,,,0.00,meteohub,2013-11-23 00:11:00,
2013-11-22 19:16:00,68.2,67.8,30.12,East,90,1.0,2.0,99,0.00,,,0.00,meteohub,2013-11-23 00:16:00,
2013-11-22 19:21:00,68.2,67.8,30.11,SE,135,2.0,2.0,99,0.00,,,0.00,meteohub,2013-11-23 00:21:00,
2013-11-22 19:26:00,68.0,67.6,30.11,SE,135,0.0,2.0,99,0.00,,,0.00,meteohub,2013-11-23 00:26:00,
2013-11-22 19:31:00,68.0,67.6,30.11,SE,135,0.0,2.0,99,0.00,,,0.00,meteohub,2013-11-23 00:31:00,
2013-11-22 19:36:00,67.8,67.5,30.11,SE,135,1.0,2.0,99,0.00,,,0.00,meteohub,2013-11-23 00:36:00,
2013-11-22 19:41:00,67.6,67.3,30.10,SE,135,0.0,1.0,99,0.00,,,0.00,meteohub,2013-11-23 00:41:00,
2013-11-22 19:46:00,67.5,67.1,30.10,SE,135,0.0,1.0,99,0.00,,,0.00,meteohub,2013-11-23 00:46:00,
2013-11-22 19:51:00,67.5,67.1,30.10,SE,135,0.0,1.0,99,0.00,,,0.00,meteohub,2013-11-23 00:51:00,
2013-11-22 19:56:00,67.1,66.7,30.10,SE,135,0.0,0.0,99,0.00,,,0.00,meteohub,2013-11-23 00:56:00,
2013-11-22 20:02:00,67.1,66.7,30.10,SE,135,0.0,0.0,99,0.00,,,0.00,meteohub,2013-11-23 01:02:00,
2013-11-22 20:07:00,66.9,66.6,30.11,SE,135,0.0,0.0,99,0.00,,,0.00,meteohub,2013-11-23 01:07:00,
2013-11-22 20:12:00,66.7,66.4,30.10,SE,135,0.0,0.0,99,0.00,,,0.00,meteohub,2013-11-23 01:12:00,
2013-11-22 20:17:00,66.7,66.4,30.10,SE,135,0.0,0.0,99,0.00,,,0.00,meteohub,2013-11-23 01:17:00,
2013-11-22 20:22:00,66.6,66.2,30.10,SE,135,0.0,0.0,99,0.00,,,0.00,meteohub,2013-11-23 01:22:00,
2013-11-22 20:27:00,66.6,66.2,30.10,SE,135,0.0,0.0,99,0.00,,,0.00,meteohub,2013-11-23 01:27:00,
2013-11-22 20:32:00,66.4,66.0,30.10,SE,135,0.0,0.0,99,0.00,,,0.00,meteohub,2013-11-23 01:32:00,
2013-11-22 20:37:00,66.2,65.8,30.10,SE,135,0.0,0.0,99,0.00,,,0.00,meteohub,2013-11-23 01:37:00,
2013-11-22 20:42:00,66.0,65.7,30.10,SW,225,0.0,0.0,99,0.00,,,0.00,meteohub,2013-11-23 01:42:00,
2013-11-22 20:47:00,66.0,65.7,30.09,SW,225,0.0,0.0,99,0.00,,,0.00,meteohub,2013-11-23 01:47:00,
2013-11-22 20:52:00,65.8,65.5,30.09,SW,225,0.0,0.0,99,0.00,,,0.00,meteohub,2013-11-23 01:52:00,
2013-11-22 20:57:00,65.5,65.1,30.09,SW,225,0.0,0.0,99,0.00,,,0.00,meteohub,2013-11-23 01:57:00,
2013-11-22 21:02:00,65.3,64.9,30.09,SW,225,0.0,0.0,99,0.00,,,0.00,meteohub,2013-11-23 02:02:00,
2013-11-22 21:07:00,64.9,64.6,30.09,SW,225,0.0,0.0,99,0.00,,,0.00,meteohub,2013-11-23 02:07:00,
2013-11-22 21:12:00,64.8,64.4,30.09,SW,225,0.0,0.0,99,0.00,,,0.00,meteohub,2013-11-23 02:12:00,
2013-11-22 21:17:00,64.6,64.2,30.10,South,180,0.0,0.0,99,0.00,,,0.00,meteohub,2013-11-23 02:17:00,
2013-11-22 21:23:00,64.4,64.0,30.10,South,180,0.0,0.0,99,0.00,,,0.00,meteohub,2013-11-23 02:23:00,
2013-11-22 21:28:00,64.0,63.7,30.09,South,180,0.0,0.0,99,0.00,,,0.00,meteohub,2013-11-23 02:28:00,
2013-11-22 21:33:00,63.9,63.5,30.10,South,180,0.0,0.0,99,0.00,,,0.00,meteohub,2013-11-23 02:33:00,
2013-11-22 21:38:00,63.5,63.1,30.09,South,180,0.0,0.0,99,0.00,,,0.00,meteohub,2013-11-23 02:38:00,
2013-11-22 21:43:00,63.5,63.1,30.10,South,180,0.0,0.0,99,0.00,,,0.00,meteohub,2013-11-23 02:43:00,
2013-11-22 21:48:00,63.5,63.1,30.10,South,180,0.0,0.0,99,0.00,,,0.00,meteohub,2013-11-23 02:48:00,
2013-11-22 21:53:00,63.3,63.0,30.10,South,180,0.0,0.0,99,0.00,,,0.00,meteohub,2013-11-23 02:53:00,
2013-11-22 21:58:00,63.5,63.1,30.10,South,180,0.0,0.0,99,0.00,,,0.00,meteohub,2013-11-23 02:58:00,
2013-11-22 22:04:00,63.5,63.1,30.10,South,180,0.0,0.0,99,0.00,,,0.00,meteohub,2013-11-23 03:04:00,
2013-11-22 22:09:00,63.7,63.3,30.10,South,180,0.0,0.0,99,0.00,,,0.00,meteohub,2013-11-23 03:09:00,
2013-11-22 22:14:00,63.9,63.5,30.10,South,180,0.0,0.0,99,0.00,,,0.00,meteohub,2013-11-23 03:14:00,
2013-11-22 22:19:00,63.9,63.5,30.10,South,180,0.0,0.0,99,0.00,,,0.00,meteohub,2013-11-23 03:19:00,
2013-11-22 22:24:00,64.0,63.7,30.10,South,180,0.0,0.0,99,0.00,,,0.00,meteohub,2013-11-23 03:24:00,
2013-11-22 22:29:00,64.2,63.9,30.10,South,180,0.0,0.0,99,0.00,,,0.00,meteohub,2013-11-23 03:29:00,
2013-11-22 22:34:00,64.4,64.0,30.10,South,180,0.0,0.0,99,0.00,,,0.00,meteohub,2013-11-23 03:34:00,
2013-11-22 22:40:00,64.4,64.0,30.10,South,180,0.0,0.0,99,0.00,,,0.00,meteohub,2013-11-23 03:40:00,
2013-11-22 22:45:00,64.4,64.0,30.10,South,180,0.0,0.0,99,0.00,,,0.00,meteohub,2013-11-23 03:45:00,
2013-11-22 22:50:00,64.4,64.0,30.09,South,180,0.0,0.0,99,0.00,,,0.00,meteohub,2013-11-23 03:50:00,
2013-11-22 22:55:00,64.4,64.0,30.09,South,180,1.0,0.0,99,0.00,,,0.00,meteohub,2013-11-23 03:55:00,
2013-11-22 23:00:00,64.4,64.0,30.09,South,180,0.0,1.0,99,0.00,,,0.00,meteohub,2013-11-23 04:00:00,
2013-11-22 23:05:00,64.6,64.2,30.09,South,180,0.0,1.0,99,0.00,,,0.00,meteohub,2013-11-23 04:05:00,
2013-11-22 23:10:00,64.4,64.0,30.09,South,180,0.0,1.0,99,0.00,,,0.00,meteohub,2013-11-23 04:10:00,
2013-11-22 23:15:00,64.4,64.0,30.09,South,180,0.0,0.0,99,0.00,,,0.00,meteohub,2013-11-23 04:15:00,
2013-11-22 23:20:00,64.4,64.0,30.09,South,180,0.0,0.0,99,0.00,,,0.00,meteohub,2013-11-23 04:20:00,
2013-11-22 23:25:00,64.6,64.2,30.09,South,180,0.0,0.0,99,0.00,,,0.00,meteohub,2013-11-23 04:25:00,
2013-11-22 23:30:00,64.4,64.0,30.09,South,180,0.0,0.0,99,0.00,,,0.00,meteohub,2013-11-23 04:30:00,
2013-11-22 23:35:00,64.4,64.0,30.09,South,180,0.0,0.0,99,0.00,,,0.00,meteohub,2013-11-23 04:35:00,
2013-11-22 23:41:00,64.4,64.0,30.09,South,180,0.0,0.0,99,0.00,,,0.00,meteohub,2013-11-23 04:41:00,
2013-11-22 23:46:00,64.0,63.7,30.08,South,180,0.0,0.0,99,0.00,,,0.00,meteohub,2013-11-23 04:46:00,
2013-11-22 23:51:00,63.9,63.5,30.08,South,180,0.0,0.0,99,0.00,,,0.00,meteohub,2013-11-23 04:51:00,
2013-11-22 23:56:00,63.7,63.3,30.08,South,180,0.0,0.0,99,0.00,,,0.00,meteohub,2013-11-23 04:56:00,